Wind_Speed
13 14 14 12 11 12 15 16 18 20 21 20 20 20 18 17 18 19 20 20 19 18 19 20 20 19 18 16 15 14 14 14 15 15 15 14 13 13 14 16 17 18 18
16 16 16 14 14 15 17 18 20 22 23 22 22 22 21 19 19 19 21 22 21 20 19 20 21 21 21 20 18 16 15 15 16 16 17 16 15 15 16 18 19 19 19
19 18 18 18 18 19 20 20 21 23 25 25 25 24 24 23 21 21 22 23 22 21 21 22 23 23 24 24 22 20 18 18 17 17 18 18 18 17 18 19 19 20 20
22 20 20 21 21 22 23 24 24 25 27 28 28 28 26 25 24 23 24 24 24 23 23 24 24 24 25 26 25 24 22 21 19 18 19 19 19 19 19 20 21 20 21
26 24 23 25 26 27 28 29 29 29 30 32 31 30 29 28 27 26 26 25 25 25 25 25 24 24 25 26 25 25 25 24 22 21 21 21 20 20 19 20 21 21 21
33 29 28 30 31 32 33 34 34 35 34 35 34 32 32 31 30 29 29 28 27 27 27 27 27 26 26 27 26 26 26 25 24 23 22 21 20 20 20 20 21 23 23
40 34 31 32 34 34 35 37 38 38 37 37 37 35 34 34 33 33 32 31 30 30 30 30 30 31 32 30 28 27 27 26 25 24 23 22 20 19 20 22 22 23 25
44 38 35 35 35 36 36 38 39 40 39 39 40 39 36 35 35 35 35 34 34 34 36 36 34 35 35 34 32 28 27 25 25 26 24 23 21 21 21 22 23 23 24
42 37 35 36 36 36 37 38 39 39 38 38 39 40 38 34 35 35 35 35 36 36 36 37 36 35 35 34 32 29 27 25 26 27 27 25 24 23 22 22 23 23 23
36 34 35 35 35 36 36 36 37 37 37 37 38 39 39 36 34 33 35 35 36 36 37 38 36 34 34 32 31 29 28 27 27 28 29 28 25 24 24 23 23 24 23
32 32 33 33 34 34 35 37 39 39 39 38 37 37 37 36 35 34 34 34 36 39 40 40 38 37 35 33 32 31 31 30 31 31 31 29 27 25 25 24 24 24 23
30 31 33 33 34 34 36 39 40 40 39 37 35 35 34 34 32 31 31 33 37 40 42 41 41 39 38 36 35 34 33 33 34 35 34 30 28 26 25 24 24 24 23
31 33 34 35 35 36 38 40 39 37 35 34 32 32 32 31 31 31 32 35 39 41 42 40 39 39 39 39 38 37 36 35 35 36 34 31 29 27 25 24 24 23 23
33 35 36 37 37 37 38 37 34 32 32 31 29 28 29 30 31 33 35 38 39 39 39 37 36 34 34 37 37 37 35 35 35 34 33 31 29 27 25 25 24 24 23
35 36 37 39 39 38 35 32 30 30 28 27 26 25 26 28 30 32 34 36 38 38 37 37 36 35 33 34 35 37 37 37 36 34 33 32 30 27 26 25 24 23 22
40 42 42 40 37 34 30 29 28 26 25 24 24 24 23 24 24 26 30 33 35 36 36 35 35 34 32 32 33 35 38 36 35 33 32 30 28 26 25 24 23 22 21
37 36 35 34 32 31 30 29 28 26 25 23 23 23 22 22 22 23 24 27 33 35 34 33 33 32 33 32 31 32 33 33 30 27 27 26 25 25 24 24 22 22 21
30 30 31 31 32 32 31 30 29 27 25 24 24 24 24 24 25 23 21 19 23 28 29 29 29 28 28 29 29 28 26 25 22 22 23 24 24 24 23 23 22 22 21
30 31 32 32 31 31 30 30 30 29 27 26 26 27 28 28 27 25 22 20 19 19 19 21 23 25 25 25 27 26 22 19 19 22 24 24 23 23 23 22 23 24 23
31 31 31 32 31 30 29 29 29 29 28 27 27 29 30 30 29 28 26 24 23 21 19 19 19 19 20 20 21 22 21 19 20 22 23 22 22 22 21 22 23 24 24
31 31 30 30 29 29 28 28 27 27 28 28 28 29 29 29 29 29 29 28 27 26 24 23 22 21 20 18 19 21 22 21 22 23 23 22 23 21 21 21 22 22 21
31 30 29 28 28 29 29 27 25 26 27 27 27 28 28 28 28 29 30 30 29 29 29 28 28 26 25 23 22 22 22 23 24 25 25 24 23 21 20 21 21 20 19
31 30 29 27 28 29 28 27 25 25 25 25 25 25 26 27 27 28 29 31 31 31 31 32 32 32 30 28 27 26 26 26 28 28 28 27 26 24 23 23 22 21 21
28 27 26 26 26 26 25 24 23 24 24 24 24 24 24 25 25 27 28 29 30 31 32 34 34 35 35 34 32 31 31 31 30 30 30 29 28 26 25 24 24 25 25
26 24 22 21 21 21 21 21 21 23 23 23 23 22 23 23 24 25 27 28 30 31 33 35 37 38 39 38 38 37 35 34 34 35 34 32 31 30 30 30 29 28 29
19 17 16 16 17 16 16 16 17 18 19 19 19 20 21 22 23 23 24 25 26 28 31 34 36 38 39 41 41 41 40 39 39 39 40 39 38 38 37 36 35 33 32
Wind_Direction
270 276 279 281 289 303 317 327 332 335 334 329 322 321 319 307 287 273 271 272 272 276 279 279 279 280 285 292 292 288 283 284 283 278 275 272 271 278 285 283 280 277 275
266 273 276 280 289 297 309 318 324 328 330 325 319 314 311 306 292 281 274 271 270 273 277 279 278 279 282 286 288 285 278 279 282 279 278 277 277 281 288 290 287 281 277
272 277 281 286 292 297 304 308 313 318 321 321 315 311 308 303 293 281 279 276 269 267 271 276 279 279 280 282 281 280 278 277 279 279 279 280 282 285 287 288 287 283 279
280 284 286 290 295 298 299 300 305 308 311 311 309 305 303 302 296 285 280 278 271 265 265 270 275 278 278 280 278 274 273 275 278 279 280 281 283 286 288 286 285 282 280
283 286 286 288 291 293 293 295 299 301 302 302 302 299 297 296 296 290 283 277 270 265 264 266 270 274 275 277 277 270 267 270 277 281 282 280 279 283 287 285 285 284 283
278 281 282 283 287 290 291 293 295 297 298 298 297 296 294 292 291 288 284 277 270 265 262 264 269 274 276 277 275 267 262 264 273 278 281 278 275 279 282 281 282 283 284
271 276 279 283 289 291 292 292 293 295 296 295 294 294 292 290 286 280 278 276 270 266 263 264 269 274 275 276 275 264 257 260 269 273 276 275 274 276 276 277 279 281 281
266 275 283 289 291 289 288 289 291 292 293 293 293 293 292 289 284 277 273 272 270 269 267 266 271 276 275 273 274 264 252 257 268 271 272 273 275 275 272 273 278 281 280
263 273 284 289 287 285 286 288 289 290 291 292 293 293 293 290 284 281 275 269 267 268 268 267 272 276 274 270 269 261 250 256 266 270 270 273 276 275 270 269 273 278 279
265 276 283 283 281 282 285 287 288 290 291 293 293 293 292 289 284 280 275 269 266 265 265 267 270 273 271 268 264 259 253 258 263 266 267 270 275 274 271 268 270 275 275
270 276 277 277 278 282 286 289 291 292 293 292 292 291 290 287 283 279 273 268 264 263 264 265 268 271 267 262 258 258 255 256 259 259 259 264 268 269 268 265 266 269 268
269 271 272 275 279 284 288 290 291 291 292 291 291 291 289 285 281 276 271 264 261 262 264 265 267 268 265 260 257 256 258 258 258 258 255 258 262 264 263 261 261 263 261
267 269 271 275 280 284 288 290 290 291 291 291 291 291 289 284 279 272 266 261 260 262 264 265 265 266 264 260 259 259 260 258 259 262 257 256 260 261 258 257 257 258 257
267 270 273 276 279 283 288 290 290 290 290 289 290 290 288 283 278 274 268 262 261 262 261 262 263 264 263 262 262 261 257 256 261 264 259 256 257 257 254 253 253 255 255
267 271 276 279 280 283 285 286 287 288 286 285 287 288 289 285 281 278 273 266 262 260 259 259 261 264 265 263 261 257 254 257 259 258 255 254 253 253 252 251 250 252 253
270 273 276 278 280 281 282 283 284 284 280 278 282 286 290 292 289 287 278 268 264 260 258 259 261 263 264 263 261 256 254 250 247 247 247 247 248 250 251 249 248 252 254
270 271 275 277 279 281 281 279 279 281 279 273 272 277 283 291 296 298 292 275 264 259 258 258 257 257 259 260 252 248 243 239 236 238 243 244 247 247 247 247 248 250 250
268 270 273 274 276 278 277 275 275 276 277 273 268 269 277 286 294 300 303 292 272 259 256 256 256 256 255 248 239 239 245 243 239 245 248 249 247 247 247 247 247 246 247
269 270 271 271 272 274 275 274 273 273 273 271 267 266 269 276 284 288 291 294 290 276 265 263 262 259 253 245 239 238 241 243 249 253 252 248 246 246 246 247 246 245 247
267 266 267 268 269 271 272 271 270 270 270 269 266 265 267 271 274 277 278 278 279 280 280 280 278 270 263 255 249 245 244 246 252 254 251 246 245 244 245 246 246 247 250
263 264 266 268 269 270 270 269 269 269 269 267 265 265 266 268 269 271 272 271 269 269 271 274 275 273 268 263 259 256 256 256 256 255 253 250 249 245 241 241 243 246 248
264 264 264 266 268 270 271 271 269 268 268 267 266 266 266 267 268 268 268 268 267 266 264 265 267 267 266 263 259 257 255 254 253 253 252 252 251 248 245 244 243 243 245
264 265 264 266 269 270 269 267 266 267 269 270 271 272 271 269 269 268 267 267 266 265 264 263 263 263 263 261 258 254 252 249 249 251 251 248 248 251 252 247 243 245 246
265 263 263 266 268 268 268 268 269 270 271 273 274 274 272 271 270 269 268 268 268 267 265 263 262 261 261 261 258 255 250 248 247 246 244 245 247 251 251 246 243 245 247
261 260 263 267 271 272 273 273 273 271 272 273 273 273 274 273 272 271 270 269 268 268 266 265 264 262 260 258 257 255 250 245 242 242 242 243 246 249 250 249 247 248 247
256 258 263 268 271 277 281 281 280 279 278 277 276 276 276 276 275 274 273 271 268 266 265 264 263 262 261 259 257 255 253 248 243 240 241 243 246 247 249 249 249 248 246
Height
5900 5900 5899 5897 5895 5894 5893 5892 5891 5890 5888 5887 5885 5883 5882 5880 5879 5878 5878 5879 5879 5879 5879 5879 5879 5878 5877 5876 5874 5873 5872 5871 5870 5869 5868 5868 5867 5866 5866 5865 5865 5864 5864
5897 5896 5895 5894 5892 5890 5889 5887 5887 5886 5884 5883 5881 5880 5878 5876 5875 5874 5873 5874 5874 5874 5875 5875 5874 5874 5873 5872 5871 5870 5869 5868 5867 5866 5865 5864 5863 5863 5862 5861 5861 5860 5860
5892 5891 5890 5889 5888 5886 5885 5883 5882 5882 5880 5879 5877 5876 5874 5872 5870 5869 5868 5867 5868 5869 5870 5869 5869 5869 5868 5868 5867 5867 5865 5864 5864 5863 5861 5860 5859 5858 5857 5857 5856 5856 5856
5886 5885 5884 5884 5883 5881 5880 5878 5877 5876 5874 5873 5872 5871 5869 5867 5865 5864 5863 5862 5861 5862 5863 5864 5864 5863 5863 5863 5862 5862 5862 5860 5859 5858 5857 5856 5855 5854 5853 5852 5852 5851 5851
5880 5879 5878 5877 5876 5875 5874 5872 5870 5869 5868 5866 5865 5864 5862 5861 5859 5858 5857 5856 5856 5855 5856 5857 5857 5857 5857 5856 5856 5856 5856 5855 5854 5853 5853 5852 5850 5849 5848 5847 5847 5847 5846
5873 5872 5870 5869 5868 5867 5866 5864 5862 5861 5860 5858 5858 5857 5856 5854 5853 5851 5850 5850 5849 5849 5849 5850 5850 5850 5850 5849 5848 5848 5849 5849 5849 5848 5848 5847 5845 5844 5843 5842 5842 5841 5841
5863 5863 5862 5861 5859 5858 5857 5855 5853 5852 5851 5849 5849 5849 5848 5846 5845 5843 5842 5842 5842 5842 5842 5842 5843 5843 5842 5842 5841 5841 5842 5843 5843 5843 5842 5841 5840 5839 5838 5838 5837 5836 5836
5852 5852 5852 5851 5850 5850 5848 5846 5845 5844 5843 5841 5839 5838 5839 5839 5836 5835 5833 5833 5833 5834 5834 5834 5834 5834 5834 5833 5833 5833 5834 5836 5837 5837 5836 5836 5835 5834 5833 5833 5832 5831 5831
5840 5841 5841 5842 5842 5841 5840 5838 5837 5836 5835 5833 5829 5828 5828 5828 5826 5826 5825 5824 5824 5824 5825 5825 5826 5825 5825 5825 5825 5825 5827 5828 5830 5830 5830 5830 5830 5828 5827 5827 5826 5826 5826
5829 5830 5832 5834 5834 5833 5832 5830 5829 5828 5826 5824 5821 5818 5817 5817 5817 5817 5815 5815 5815 5815 5816 5816 5817 5817 5816 5816 5816 5817 5819 5821 5822 5824 5824 5824 5823 5823 5822 5821 5821 5821 5821
5820 5822 5824 5825 5825 5825 5823 5822 5820 5818 5816 5814 5812 5809 5807 5806 5806 5806 5805 5805 5805 5806 5806 5807 5807 5808 5807 5807 5808 5809 5811 5813 5815 5816 5816 5817 5817 5816 5816 5815 5815 5815 5815
5812 5814 5815 5815 5815 5815 5815 5813 5812 5809 5806 5804 5802 5800 5798 5797 5796 5795 5795 5795 5796 5796 5796 5797 5797 5797 5797 5798 5800 5801 5802 5804 5805 5806 5807 5808 5809 5809 5809 5808 5808 5808 5809
5804 5805 5805 5806 5806 5806 5805 5804 5802 5800 5798 5795 5792 5790 5789 5787 5786 5785 5785 5785 5786 5786 5785 5786 5787 5787 5787 5789 5790 5792 5793 5794 5795 5796 5797 5799 5800 5800 5801 5801 5802 5802 5803
5795 5796 5796 5796 5796 5796 5795 5794 5792 5791 5789 5788 5785 5783 5780 5778 5777 5776 5776 5776 5776 5776 5776 5776 5776 5777 5778 5779 5781 5782 5783 5784 5785 5786 5787 5789 5791 5792 5793 5794 5795 5796 5797
5786 5787 5787 5787 5787 5787 5786 5785 5784 5783 5781 5780 5779 5776 5773 5770 5769 5768 5767 5766 5767 5767 5767 5767 5767 5768 5769 5769 5771 5772 5773 5774 5775 5776 5778 5780 5782 5783 5784 5786 5788 5789 5790
5777 5777 5778 5778 5778 5779 5778 5777 5775 5774 5773 5772 5771 5769 5766 5764 5761 5759 5758 5757 5757 5758 5758 5758 5758 5759 5759 5760 5761 5762 5763 5764 5765 5767 5769 5771 5773 5775 5777 5779 5781 5782 5783
5766 5767 5768 5769 5770 5770 5770 5769 5768 5767 5766 5764 5764 5763 5761 5759 5756 5754 5751 5749 5749 5749 5749 5749 5749 5750 5750 5751 5753 5753 5754 5755 5756 5758 5760 5763 5765 5767 5770 5772 5773 5775 5777
5758 5758 5759 5760 5761 5761 5761 5761 5759 5759 5758 5757 5756 5756 5755 5753 5751 5749 5746 5743 5741 5741 5741 5741 5741 5742 5742 5743 5744 5746 5747 5748 5749 5750 5753 5755 5757 5760 5763 5765 5766 5768 5769
5750 5750 5750 5751 5752 5752 5752 5751 5751 5750 5750 5749 5748 5747 5747 5746 5746 5744 5742 5739 5737 5735 5734 5734 5734 5735 5735 5736 5737 5738 5740 5741 5743 5744 5746 5748 5751 5753 5756 5757 5759 5761 5763
5742 5742 5743 5743 5743 5742 5742 5742 5742 5741 5740 5740 5739 5738 5738 5737 5737 5737 5735 5734 5733 5731 5729 5729 5729 5729 5729 5730 5730 5731 5733 5735 5737 5739 5741 5742 5745 5746 5748 5750 5752 5754 5756
5734 5734 5734 5734 5733 5733 5733 5734 5733 5732 5732 5731 5730 5729 5729 5728 5728 5728 5728 5727 5727 5726 5725 5724 5724 5724 5724 5725 5726 5727 5728 5729 5731 5734 5735 5737 5739 5740 5741 5744 5745 5747 5749
5725 5725 5725 5725 5725 5725 5725 5725 5725 5724 5724 5723 5722 5722 5721 5720 5719 5719 5719 5719 5719 5718 5718 5718 5718 5718 5719 5719 5720 5722 5723 5724 5726 5728 5729 5732 5733 5734 5736 5737 5739 5741 5743
5717 5717 5717 5716 5717 5717 5717 5717 5717 5717 5716 5715 5715 5714 5713 5712 5711 5711 5710 5710 5710 5710 5710 5711 5710 5710 5711 5712 5713 5715 5717 5718 5720 5721 5722 5724 5725 5727 5729 5731 5733 5735 5736
5708 5708 5709 5709 5710 5710 5711 5710 5710 5710 5709 5708 5707 5706 5705 5704 5703 5702 5701 5700 5700 5700 5700 5701 5701 5701 5702 5702 5704 5706 5708 5710 5711 5713 5713 5714 5717 5719 5721 5723 5725 5727 5729
5701 5701 5702 5703 5703 5704 5704 5703 5703 5703 5702 5701 5699 5698 5697 5697 5695 5694 5693 5692 5691 5690 5690 5690 5690 5691 5691 5692 5693 5695 5698 5700 5702 5704 5705 5706 5708 5711 5713 5715 5717 5718 5721
5695 5696 5697 5697 5698 5697 5696 5696 5696 5695 5695 5694 5693 5691 5690 5689 5687 5686 5684 5683 5682 5681 5680 5679 5679 5679 5679 5680 5682 5683 5685 5688 5690 5693 5695 5697 5699 5702 5704 5706 5708 5710 5712